Powrót do katalogu

DOVE 3

AktywnyNaukaSSO
NORAD 39429·PAYLOAD·🇺🇸 United States

Wystrzelony Nov 21, 2013 z Dombarovsky

Loading…

Następne Przeloty (najbliższe 24 godziny)

TLE

ŚwieżeSource: Space-Track

Epoka: Sep 14, 2026, 13:14 UTC

1 39429U 13066P   26257.55166464  .00002079  00000-0  27404-3 0  9990
2 39429  97.6512 112.8101 0114493  94.3387 267.0916 14.76606057684190

Śledź DOVE 3 w czasie rzeczywistym z AllMySat

Download on the App Store